COSMOS 2451

导读

COSMOS 2451(宇宙2451)是独联体(CIS)于2009年7月6日发射的军用卫星,隶属于苏联/俄罗斯“宇宙”(Cosmos)卫星系列。该系列自1962年起采用统一命名,涵盖多种军事航天器,目的隐藏卫星真实任务属性。作为俄罗斯航天军事部署的一部分,COSMOS 2451承担军事侦察或空间监视任务,延续了该系列保密传统,具体任务参数未完全公开,目前仍在轨运行。

基本信息
目录编号:
35498
目录名称:
COSMOS 2451
国际标识:
2009-036A
轨道中心:
EARTH
卫星名称:
COSMOS 2451
卫星全名:
--
卫星状态:
在轨 (已飞行6279 天)
发射日期:
2009-07-06 UTC
国别 :
俄罗斯(独联体) (CIS)
星等 :
--
该卫星已列入 空间交会检测服务 Space Conjunction Data Service (SCDS) ,当前飞行风险评估等级: 无高风险
轨道信息
数据来源 国际轨道数据 AOE轨道数据
星历时间 2026-09-14T04:43:13+0800
6小时前
查看轨道信息
2026-09-10T17:00:00+0800
3天前
查看轨道信息
半长轴 7881.046km 7881.056km
偏心率 0.0007035 0.0007317
轨道倾角 82.488° 82.492°
近地点辐角 25.739° 27.682°
升交点赤经 37.316° 39.483°
平近点角 334.404° 237.095°
近地点 1497.364km 1497.152km
远地点 1508.454km 1508.686km
周期 116.047分钟 116.048分钟
每日圈数 12.408721 12.408696
详细信息
使用方式:
暂无
2D轨道图
3D轨道图
轨道高度分析图
轨道倾角分析图
轨道综合分析图
查看轨道综合分析图
与全量物体交会距离演化趋势 订阅飞行安全评估服务
与全量物体交会风险概率演化趋势 订阅飞行安全评估服务